Time,TemperatureF,DewpointF,PressureIn,WindDirection,WindDirectionDegrees,WindSpeedMPH,WindSpeedGustMPH,Humidity,HourlyPrecipIn,Conditions,Clouds,dailyrainin,SoftwareType,DateUTC
2013-04-20 00:01:00,78.8,72.1,30.00,SE,146,0.0,0.0,80,0.00,,OVC,0.00,WeatherDisplay:10.37,2013-04-20 04:01:00,
2013-04-20 00:06:00,78.8,72.1,30.00,SE,145,15.0,15.0,80,0.00,,OVC,0.00,WeatherDisplay:10.37,2013-04-20 04:06:00,
2013-04-20 00:11:00,78.6,72.3,30.00,SE,144,1.2,1.2,81,0.00,,OVC,0.00,WeatherDisplay:10.37,2013-04-20 04:11:00,
2013-04-20 00:16:00,78.6,72.3,29.99,SSE,147,9.2,9.2,81,0.00,,OVC,0.00,WeatherDisplay:10.37,2013-04-20 04:16:00,
2013-04-20 00:21:00,78.6,72.3,29.99,SSE,150,8.1,8.1,81,0.00,,OVC,0.00,WeatherDisplay:10.37,2013-04-20 04:21:00,
2013-04-20 00:26:00,78.5,72.5,29.99,SE,142,9.2,9.2,82,0.00,,OVC,0.00,WeatherDisplay:10.37,2013-04-20 04:26:00,
2013-04-20 00:31:00,78.5,72.5,29.98,SE,140,12.0,12.0,82,0.00,,OVC,0.00,WeatherDisplay:10.37,2013-04-20 04:31:00,
2013-04-20 00:36:00,78.5,72.9,29.98,SE,142,16.0,16.0,83,0.00,,OVC,0.00,WeatherDisplay:10.37,2013-04-20 04:36:00,
2013-04-20 00:41:00,78.3,72.7,29.98,SE,142,11.0,11.0,83,0.00,,OVC,0.00,WeatherDisplay:10.37,2013-04-20 04:41:00,
2013-04-20 00:46:00,78.3,72.7,29.98,SE,140,0.0,0.0,83,0.00,,OVC,0.00,WeatherDisplay:10.37,2013-04-20 04:46:00,
2013-04-20 00:51:00,78.3,72.7,29.98,SE,130,17.0,17.0,83,0.00,,OVC,0.00,WeatherDisplay:10.37,2013-04-20 04:51:00,
2013-04-20 00:56:00,77.9,71.6,29.98,SSE,153,23.0,23.0,81,0.00,,OVC,0.00,WeatherDisplay:10.37,2013-04-20 04:56:00,
2013-04-20 01:01:00,77.7,71.4,29.98,SE,128,10.4,10.4,81,0.00,,OVC,0.00,WeatherDisplay:10.37,2013-04-20 05:01:00,
2013-04-20 01:06:00,77.4,70.4,29.98,SSE,153,23.0,23.0,79,0.00,,OVC,0.00,WeatherDisplay:10.37,2013-04-20 05:06:00,
2013-04-20 01:11:00,77.0,70.4,29.98,SE,141,8.1,8.1,80,0.00,,OVC,0.00,WeatherDisplay:10.37,2013-04-20 05:11:00,
2013-04-20 01:16:00,76.7,70.1,29.98,SE,138,12.7,12.7,80,0.00,,OVC,0.00,WeatherDisplay:10.37,2013-04-20 05:16:00,
2013-04-20 01:21:00,76.3,69.3,29.98,SSE,148,10.4,10.4,79,0.00,,OVC,0.00,WeatherDisplay:10.37,2013-04-20 05:21:00,
2013-04-20 01:26:00,76.1,68.7,29.98,SE,128,10.4,10.4,78,0.00,,OVC,0.00,WeatherDisplay:10.37,2013-04-20 05:26:00,
2013-04-20 01:31:00,76.1,68.7,29.98,SE,138,11.5,11.5,78,0.00,,OVC,0.00,WeatherDisplay:10.37,2013-04-20 05:31:00,
2013-04-20 01:36:00,76.1,68.7,29.98,SE,139,9.2,0.0,78,0.00,,OVC,0.00,WeatherDisplay:10.37,2013-04-20 05:36:00,
2013-04-20 01:41:00,76.1,69.1,29.98,SE,140,0.0,0.0,79,0.00,,OVC,0.00,WeatherDisplay:10.37,2013-04-20 05:41:00,
2013-04-20 01:46:00,76.1,69.1,29.97,SE,137,0.0,0.0,79,0.00,,OVC,0.00,WeatherDisplay:10.37,2013-04-20 05:46:00,
2013-04-20 01:51:00,76.1,69.1,29.97,SE,138,0.0,0.0,79,0.00,,OVC,0.00,WeatherDisplay:10.37,2013-04-20 05:51:00,
2013-04-20 01:56:00,76.0,69.4,29.97,SE,139,0.0,0.0,80,0.00,,OVC,0.00,WeatherDisplay:10.37,2013-04-20 05:56:00,
2013-04-20 02:01:00,76.0,69.4,29.96,SE,141,0.0,0.0,80,0.00,,OVC,0.00,WeatherDisplay:10.37,2013-04-20 06:01:00,
2013-04-20 02:06:00,75.8,69.6,29.96,SE,135,0.0,0.0,81,0.00,,OVC,0.00,WeatherDisplay:10.37,2013-04-20 06:06:00,
2013-04-20 02:11:00,75.8,69.6,29.96,SE,135,0.0,0.0,81,0.00,,OVC,0.00,WeatherDisplay:10.37,2013-04-20 06:11:00,
2013-04-20 02:16:00,75.8,69.6,29.95,SE,135,0.0,0.0,81,0.00,,OVC,0.00,WeatherDisplay:10.37,2013-04-20 06:16:00,
2013-04-20 02:21:00,75.8,69.6,29.95,SE,135,0.0,0.0,81,0.00,,OVC,0.00,WeatherDisplay:10.37,2013-04-20 06:21:00,
2013-04-20 02:26:00,75.6,69.7,29.95,SE,133,0.0,0.0,82,0.00,,OVC,0.00,WeatherDisplay:10.37,2013-04-20 06:26:00,
2013-04-20 02:31:00,75.6,69.7,29.95,SE,130,0.0,0.0,82,0.00,,OVC,0.00,WeatherDisplay:10.37,2013-04-20 06:31:00,
2013-04-20 02:36:00,75.8,69.9,29.95,SSW,209,5.0,5.0,82,0.00,,OVC,0.00,WeatherDisplay:10.37,2013-04-20 06:36:00,
2013-04-20 02:41:00,76.0,70.1,29.95,South,182,10.4,10.4,82,0.00,,OVC,0.00,WeatherDisplay:10.37,2013-04-20 06:41:00,
2013-04-20 02:46:00,75.6,70.4,29.96,SSE,153,16.1,16.1,84,0.02,RA,OVC,0.02,WeatherDisplay:10.37,2013-04-20 06:46:00,
2013-04-20 02:51:00,74.9,70.4,29.96,SE,141,5.0,5.0,86,0.02,RA,OVC,0.02,WeatherDisplay:10.37,2013-04-20 06:51:00,
2013-04-20 02:56:00,74.4,70.3,29.96,SE,136,5.8,5.8,87,0.03,RA,OVC,0.03,WeatherDisplay:10.37,2013-04-20 06:56:00,
2013-04-20 03:01:00,74.0,70.2,29.95,SE,144,11.5,11.5,88,0.03,RA,OVC,0.03,WeatherDisplay:10.37,2013-04-20 07:01:00,
2013-04-20 03:06:00,73.9,70.5,29.95,SSE,162,14.0,14.0,89,0.03,,OVC,0.03,WeatherDisplay:10.37,2013-04-20 07:06:00,
2013-04-20 03:11:00,73.7,70.3,29.95,SSE,150,8.0,8.0,89,0.03,,OVC,0.03,WeatherDisplay:10.37,2013-04-20 07:11:00,
2013-04-20 03:16:00,73.5,69.7,29.95,SE,136,0.0,0.6,88,0.03,,OVC,0.03,WeatherDisplay:10.37,2013-04-20 07:16:00,
2013-04-20 03:21:00,73.3,69.5,29.95,SSE,155,11.5,0.0,88,0.03,,OVC,0.03,WeatherDisplay:10.37,2013-04-20 07:21:00,
2013-04-20 03:26:00,73.3,69.5,29.95,SSE,147,19.0,19.0,88,0.03,,OVC,0.03,WeatherDisplay:10.37,2013-04-20 07:26:00,
2013-04-20 03:32:00,73.5,69.7,29.94,SE,136,15.0,15.0,88,0.03,,OVC,0.03,WeatherDisplay:10.37,2013-04-20 07:32:00,
2013-04-20 03:37:00,73.5,69.7,29.94,SE,140,8.1,0.0,88,0.03,,OVC,0.03,WeatherDisplay:10.37,2013-04-20 07:37:00,
2013-04-20 03:42:00,73.5,69.7,29.94,SE,134,0.0,0.0,88,0.03,,OVC,0.03,WeatherDisplay:10.37,2013-04-20 07:42:00,
2013-04-20 03:47:00,73.7,70.3,29.94,SE,135,0.0,0.0,89,0.01,,OVC,0.03,WeatherDisplay:10.37,2013-04-20 07:47:00,
2013-04-20 03:52:00,73.7,70.3,29.94,SE,135,0.0,0.0,89,0.01,,OVC,0.03,WeatherDisplay:10.37,2013-04-20 07:52:00,
2013-04-20 03:57:00,73.9,70.5,29.94,SE,135,0.0,0.0,89,0.00,,OVC,0.03,WeatherDisplay:10.37,2013-04-20 07:57:00,
2013-04-20 04:02:00,73.9,70.5,29.94,SE,135,0.0,0.0,89,0.00,,OVC,0.03,WeatherDisplay:10.37,2013-04-20 08:02:00,
2013-04-20 04:07:00,73.9,70.5,29.94,SE,135,0.0,0.0,89,0.00,,OVC,0.03,WeatherDisplay:10.37,2013-04-20 08:07:00,
2013-04-20 04:12:00,73.7,70.6,29.94,SE,135,0.0,0.0,90,0.00,,OVC,0.03,WeatherDisplay:10.37,2013-04-20 08:12:00,
2013-04-20 04:17:00,73.9,70.8,29.94,SE,135,0.0,0.0,90,0.00,,OVC,0.03,WeatherDisplay:10.37,2013-04-20 08:17:00,
2013-04-20 04:22:00,73.9,70.8,29.94,SE,135,0.0,0.0,90,0.00,,OVC,0.03,WeatherDisplay:10.37,2013-04-20 08:22:00,
2013-04-20 04:27:00,74.2,71.4,29.94,SE,135,0.0,0.0,91,0.00,,OVC,0.03,WeatherDisplay:10.37,2013-04-20 08:27:00,
2013-04-20 04:32:00,74.2,71.4,29.94,SE,135,0.0,0.0,91,0.00,,OVC,0.03,WeatherDisplay:10.37,2013-04-20 08:32:00,
2013-04-20 04:37:00,74.2,71.4,29.94,SE,135,0.0,0.0,91,0.00,,OVC,0.03,WeatherDisplay:10.37,2013-04-20 08:37:00,
2013-04-20 04:42:00,74.0,71.2,29.94,SE,135,0.0,0.0,91,0.00,,OVC,0.03,WeatherDisplay:10.37,2013-04-20 08:42:00,
2013-04-20 04:47:00,74.2,71.4,29.94,SE,135,0.0,0.0,91,0.00,,OVC,0.03,WeatherDisplay:10.37,2013-04-20 08:47:00,
2013-04-20 04:52:00,74.2,71.4,29.94,SE,146,1.2,0.0,91,0.00,,OVC,0.03,WeatherDisplay:10.37,2013-04-20 08:52:00,
2013-04-20 04:57:00,74.4,71.6,29.94,SE,146,0.0,0.0,91,0.00,,OVC,0.03,WeatherDisplay:10.37,2013-04-20 08:57:00,
2013-04-20 05:02:00,74.6,71.8,29.95,SE,146,0.0,0.0,91,0.00,,OVC,0.03,WeatherDisplay:10.37,2013-04-20 09:02:00,
2013-04-20 05:07:00,74.6,71.8,29.95,SE,146,0.0,0.0,91,0.00,,OVC,0.03,WeatherDisplay:10.37,2013-04-20 09:07:00,
2013-04-20 05:12:00,74.7,71.9,29.95,SE,146,0.0,0.0,91,0.00,,OVC,0.03,WeatherDisplay:10.37,2013-04-20 09:12:00,
2013-04-20 05:17:00,74.7,71.9,29.95,SE,146,0.0,0.0,91,0.00,,OVC,0.03,WeatherDisplay:10.37,2013-04-20 09:17:00,
2013-04-20 05:22:00,74.6,71.8,29.95,SE,146,0.0,0.0,91,0.00,,OVC,0.03,WeatherDisplay:10.37,2013-04-20 09:22:00,
2013-04-20 05:27:00,74.6,71.8,29.95,SE,146,0.0,0.0,91,0.00,,OVC,0.03,WeatherDisplay:10.37,2013-04-20 09:27:00,
2013-04-20 05:32:00,74.6,71.8,29.95,SE,146,0.0,0.0,91,0.00,,OVC,0.03,WeatherDisplay:10.37,2013-04-20 09:32:00,
2013-04-20 05:37:00,74.6,71.8,29.95,SE,146,0.0,0.0,91,0.00,,OVC,0.03,WeatherDisplay:10.37,2013-04-20 09:37:00,
2013-04-20 05:42:00,74.6,72.1,29.95,SE,146,0.0,0.0,92,0.00,,OVC,0.03,WeatherDisplay:10.37,2013-04-20 09:42:00,
2013-04-20 05:47:00,74.7,72.2,29.94,SE,146,0.0,0.0,92,0.00,,OVC,0.03,WeatherDisplay:10.37,2013-04-20 09:47:00,
2013-04-20 05:52:00,74.7,72.2,29.94,SE,146,0.0,0.0,92,0.00,,OVC,0.03,WeatherDisplay:10.37,2013-04-20 09:52:00,
2013-04-20 05:57:00,74.7,72.2,29.94,SE,146,0.0,0.0,92,0.00,,OVC,0.03,WeatherDisplay:10.37,2013-04-20 09:57:00,
2013-04-20 06:02:00,74.9,72.4,29.94,South,170,0.0,0.0,92,0.00,,OVC,0.03,WeatherDisplay:10.37,2013-04-20 10:02:00,
2013-04-20 06:07:00,74.9,72.4,29.94,SW,236,0.0,0.0,92,0.00,,OVC,0.03,WeatherDisplay:10.37,2013-04-20 10:07:00,
2013-04-20 06:12:00,74.9,72.4,29.94,SW,236,0.0,0.0,92,0.00,,OVC,0.03,WeatherDisplay:10.37,2013-04-20 10:12:00,
2013-04-20 06:17:00,74.9,72.4,29.94,SW,236,0.0,0.0,92,0.00,,OVC,0.03,WeatherDisplay:10.37,2013-04-20 10:17:00,
2013-04-20 06:22:00,74.7,72.2,29.94,SW,236,0.0,0.0,92,0.00,,OVC,0.03,WeatherDisplay:10.37,2013-04-20 10:22:00,
2013-04-20 06:27:00,74.6,72.1,29.94,SW,236,0.0,0.0,92,0.00,,OVC,0.03,WeatherDisplay:10.37,2013-04-20 10:27:00,
2013-04-20 06:32:00,74.6,72.1,29.94,SW,236,0.0,0.0,92,0.00,,OVC,0.03,WeatherDisplay:10.37,2013-04-20 10:32:00,
2013-04-20 06:37:00,74.4,71.9,29.94,SW,236,0.0,0.0,92,0.00,,OVC,0.03,WeatherDisplay:10.37,2013-04-20 10:37:00,
2013-04-20 06:42:00,74.2,71.7,29.94,SW,236,0.0,0.0,92,0.00,,OVC,0.03,WeatherDisplay:10.37,2013-04-20 10:42:00,
2013-04-20 06:47:00,74.0,71.5,29.95,SW,236,0.0,0.0,92,0.00,,OVC,0.03,WeatherDisplay:10.37,2013-04-20 10:47:00,
2013-04-20 06:52:00,74.0,71.5,29.95,SW,236,0.0,0.0,92,0.00,,OVC,0.03,WeatherDisplay:10.37,2013-04-20 10:52:00,
2013-04-20 06:57:00,74.0,71.5,29.95,SW,236,0.0,0.0,92,0.00,,OVC,0.03,WeatherDisplay:10.37,2013-04-20 10:57:00,
2013-04-20 07:02:00,73.9,71.4,29.95,SW,236,0.0,0.0,92,0.00,,OVC,0.03,WeatherDisplay:10.37,2013-04-20 11:02:00,
2013-04-20 07:07:00,73.7,71.2,29.95,SW,236,0.0,0.0,92,0.00,,OVC,0.03,WeatherDisplay:10.37,2013-04-20 11:07:00,
2013-04-20 07:12:00,73.7,71.5,29.95,SW,236,0.0,0.0,93,0.00,,OVC,0.03,WeatherDisplay:10.37,2013-04-20 11:12:00,
2013-04-20 07:17:00,73.7,71.5,29.96,SW,236,0.0,0.0,93,0.00,,OVC,0.03,WeatherDisplay:10.37,2013-04-20 11:17:00,
2013-04-20 07:22:00,73.5,71.4,29.96,SW,236,0.0,0.0,93,0.00,,OVC,0.03,WeatherDisplay:10.37,2013-04-20 11:22:00,
2013-04-20 07:27:00,73.7,71.5,29.96,SW,236,0.0,0.0,93,0.00,,OVC,0.03,WeatherDisplay:10.37,2013-04-20 11:27:00,
2013-04-20 07:32:00,73.9,71.7,29.97,SW,236,0.0,0.0,93,0.00,,OVC,0.03,WeatherDisplay:10.37,2013-04-20 11:32:00,
2013-04-20 07:37:00,73.9,71.7,29.97,SW,236,0.0,0.0,93,0.00,,OVC,0.03,WeatherDisplay:10.37,2013-04-20 11:37:00,
2013-04-20 07:42:00,74.2,72.0,29.97,SW,236,0.0,0.0,93,0.00,,OVC,0.03,WeatherDisplay:10.37,2013-04-20 11:42:00,
2013-04-20 07:47:00,74.4,72.6,29.96,SW,236,0.0,0.0,94,0.00,,OVC,0.03,WeatherDisplay:10.37,2013-04-20 11:47:00,
2013-04-20 07:52:00,74.6,72.8,29.96,SW,236,0.0,0.0,94,0.00,,OVC,0.03,WeatherDisplay:10.37,2013-04-20 11:52:00,
2013-04-20 07:57:00,74.7,72.9,29.96,SW,236,0.0,0.0,94,0.00,,OVC,0.03,WeatherDisplay:10.37,2013-04-20 11:57:00,
2013-04-20 08:02:00,75.1,73.3,29.97,SW,236,0.0,0.0,94,0.00,,OVC,0.03,WeatherDisplay:10.37,2013-04-20 12:02:00,
2013-04-20 08:07:00,75.3,73.5,29.97,SW,236,0.0,0.0,94,0.00,,OVC,0.03,WeatherDisplay:10.37,2013-04-20 12:07:00,
2013-04-20 08:12:00,75.6,73.8,29.97,SW,236,0.0,0.0,94,0.00,,OVC,0.03,WeatherDisplay:10.37,2013-04-20 12:12:00,
2013-04-20 08:17:00,76.0,74.1,29.98,WSW,240,0.0,0.0,94,0.00,,OVC,0.03,WeatherDisplay:10.37,2013-04-20 12:17:00,
2013-04-20 08:22:00,76.1,74.2,29.98,WSW,240,0.0,0.0,94,0.00,,OVC,0.03,WeatherDisplay:10.37,2013-04-20 12:22:00,
2013-04-20 08:27:00,76.3,74.1,29.98,WSW,240,0.0,0.0,93,0.00,,OVC,0.03,WeatherDisplay:10.37,2013-04-20 12:27:00,
2013-04-20 08:32:00,76.5,74.3,29.98,WSW,240,0.0,0.0,93,0.00,,OVC,0.03,WeatherDisplay:10.37,2013-04-20 12:32:00,
2013-04-20 08:37:00,76.5,74.3,29.98,WSW,240,0.0,0.0,93,0.00,,OVC,0.03,WeatherDisplay:10.37,2013-04-20 12:37:00,
2013-04-20 08:42:00,76.8,74.6,29.98,WSW,240,0.0,0.0,93,0.00,,OVC,0.03,WeatherDisplay:10.37,2013-04-20 12:42:00,
2013-04-20 08:47:00,77.0,74.5,29.98,WSW,240,0.0,0.0,92,0.00,,OVC,0.03,WeatherDisplay:10.37,2013-04-20 12:47:00,
2013-04-20 08:52:00,77.2,74.7,29.98,WSW,240,0.0,0.0,92,0.00,,OVC,0.03,WeatherDisplay:10.37,2013-04-20 12:52:00,
2013-04-20 08:57:00,77.4,74.6,29.98,SW,234,0.0,0.0,91,0.00,,OVC,0.03,WeatherDisplay:10.37,2013-04-20 12:57:00,
2013-04-20 09:02:00,77.7,74.5,29.98,SW,236,0.0,0.0,90,0.00,,OVC,0.03,WeatherDisplay:10.37,2013-04-20 13:02:00,
2013-04-20 09:07:00,77.9,74.4,29.98,SSW,212,0.0,0.0,89,0.00,,OVC,0.03,WeatherDisplay:10.37,2013-04-20 13:07:00,
2013-04-20 09:12:00,78.3,74.1,29.98,South,188,0.0,0.0,87,0.00,,OVC,0.03,WeatherDisplay:10.37,2013-04-20 13:12:00,
2013-04-20 09:17:00,78.6,74.1,29.97,WSW,243,0.0,0.0,86,0.00,,OVC,0.03,WeatherDisplay:10.37,2013-04-20 13:17:00,
2013-04-20 09:22:00,79.0,73.7,29.97,SSW,193,0.0,0.0,84,0.00,,OVC,0.03,WeatherDisplay:10.37,2013-04-20 13:22:00,
2013-04-20 09:27:00,79.4,73.4,29.97,SW,217,0.0,0.0,82,0.00,,OVC,0.03,WeatherDisplay:10.37,2013-04-20 13:27:00,
2013-04-20 09:33:00,79.8,73.8,29.97,South,177,0.0,0.0,82,0.00,,OVC,0.03,WeatherDisplay:10.37,2013-04-20 13:33:00,
2013-04-20 09:38:00,80.3,73.6,29.97,SW,225,0.0,0.0,80,0.00,,OVC,0.03,WeatherDisplay:10.37,2013-04-20 13:38:00,
2013-04-20 09:43:00,80.7,73.2,29.97,SW,227,11.5,11.5,78,0.00,,OVC,0.03,WeatherDisplay:10.37,2013-04-20 13:43:00,
2013-04-20 09:48:00,80.9,73.4,29.98,SSW,213,4.6,4.6,78,0.00,,OVC,0.03,WeatherDisplay:10.37,2013-04-20 13:48:00,
2013-04-20 09:53:00,81.2,73.7,29.98,SW,221,3.5,4.2,78,0.00,,OVC,0.03,WeatherDisplay:10.37,2013-04-20 13:53:00,
2013-04-20 09:58:00,81.2,73.3,29.98,SW,219,0.0,0.0,77,0.00,,OVC,0.03,WeatherDisplay:10.37,2013-04-20 13:58:00,
2013-04-20 10:03:00,81.1,73.6,29.98,SW,227,3.5,3.5,78,0.00,,OVC,0.03,WeatherDisplay:10.37,2013-04-20 14:03:00,
2013-04-20 10:08:00,80.9,73.0,29.98,SW,227,0.0,0.0,77,0.00,,OVC,0.03,WeatherDisplay:10.37,2013-04-20 14:08:00,
2013-04-20 10:13:00,80.9,72.6,29.98,SW,219,0.0,0.0,76,0.00,,OVC,0.03,WeatherDisplay:10.37,2013-04-20 14:13:00,
2013-04-20 10:18:00,81.2,72.9,29.98,WSW,238,0.0,0.0,76,0.00,,OVC,0.03,WeatherDisplay:10.37,2013-04-20 14:18:00,
2013-04-20 10:23:00,81.2,72.9,29.98,SW,215,0.0,0.0,76,0.00,,OVC,0.03,WeatherDisplay:10.37,2013-04-20 14:23:00,
2013-04-20 10:28:00,81.4,73.1,29.98,SW,217,0.0,0.0,76,0.00,,OVC,0.03,WeatherDisplay:10.37,2013-04-20 14:28:00,
2013-04-20 10:33:00,81.8,73.5,29.99,WSW,240,1.2,0.0,76,0.00,,OVC,0.03,WeatherDisplay:10.37,2013-04-20 14:33:00,
2013-04-20 10:38:00,81.6,72.1,29.99,SW,218,9.2,9.2,73,0.00,,OVC,0.03,WeatherDisplay:10.37,2013-04-20 14:38:00,
2013-04-20 10:43:00,81.6,72.5,29.99,SW,218,0.0,0.0,74,0.00,,OVC,0.03,WeatherDisplay:10.37,2013-04-20 14:43:00,
2013-04-20 10:48:00,82.2,72.7,30.00,SW,217,0.0,0.0,73,0.00,,OVC,0.03,WeatherDisplay:10.37,2013-04-20 14:48:00,
2013-04-20 10:53:00,82.8,72.8,30.00,West,272,0.0,0.0,72,0.00,,OVC,0.03,WeatherDisplay:10.37,2013-04-20 14:53:00,
2013-04-20 10:58:00,83.2,73.2,30.00,West,280,0.0,0.0,72,0.00,,OVC,0.03,WeatherDisplay:10.37,2013-04-20 14:58:00,
2013-04-20 11:03:00,83.4,72.2,30.01,WNW,289,0.0,0.0,69,0.00,,OVC,0.03,WeatherDisplay:10.37,2013-04-20 15:03:00,
2013-04-20 11:08:00,84.0,72.7,30.01,WSW,240,0.0,0.0,69,0.00,,OVC,0.03,WeatherDisplay:10.37,2013-04-20 15:08:00,
2013-04-20 11:13:00,84.3,71.7,30.01,West,262,0.0,0.0,66,0.00,,OVC,0.03,WeatherDisplay:10.37,2013-04-20 15:13:00,
2013-04-20 11:18:00,84.5,72.3,30.01,West,265,0.0,0.0,67,0.00,,OVC,0.03,WeatherDisplay:10.37,2013-04-20 15:18:00,
2013-04-20 11:23:00,84.9,71.4,30.01,WSW,238,0.0,0.0,64,0.00,,OVC,0.03,WeatherDisplay:10.37,2013-04-20 15:23:00,
2013-04-20 11:28:00,85.1,71.5,30.01,SW,223,0.0,0.0,64,0.00,,OVC,0.03,WeatherDisplay:10.37,2013-04-20 15:28:00,
2013-04-20 11:33:00,85.1,71.1,30.00,SW,223,0.0,0.0,63,0.00,,OVC,0.03,WeatherDisplay:10.37,2013-04-20 15:33:00,
2013-04-20 11:38:00,85.3,70.8,30.00,SW,214,0.0,0.0,62,0.00,,OVC,0.03,WeatherDisplay:10.37,2013-04-20 15:38:00,
2013-04-20 11:43:00,85.7,69.2,30.00,WSW,242,0.0,0.0,58,0.00,,OVC,0.03,WeatherDisplay:10.37,2013-04-20 15:43:00,
2013-04-20 11:48:00,85.5,68.5,30.00,South,184,0.0,0.0,57,0.00,,OVC,0.03,WeatherDisplay:10.37,2013-04-20 15:48:00,
2013-04-20 11:53:00,85.5,69.0,30.00,SSW,202,0.0,0.0,58,0.00,,OVC,0.03,WeatherDisplay:10.37,2013-04-20 15:53:00,
2013-04-20 11:58:00,85.5,70.0,30.00,SSW,203,0.0,0.0,60,0.00,,OVC,0.03,WeatherDisplay:10.37,2013-04-20 15:58:00,
2013-04-20 12:03:00,85.9,68.9,30.00,SSW,205,0.0,0.0,57,0.00,,OVC,0.03,WeatherDisplay:10.37,2013-04-20 16:03:00,
2013-04-20 12:08:00,86.5,68.4,30.00,SSW,205,0.0,0.0,55,0.00,,OVC,0.03,WeatherDisplay:10.37,2013-04-20 16:08:00,
2013-04-20 12:13:00,87.0,68.3,30.00,SSW,204,0.0,0.0,54,0.00,,OVC,0.03,WeatherDisplay:10.37,2013-04-20 16:13:00,
2013-04-20 12:18:00,87.0,67.8,29.99,SSW,204,0.0,0.0,53,0.00,,OVC,0.03,WeatherDisplay:10.37,2013-04-20 16:18:00,
2013-04-20 12:23:00,87.2,69.1,29.99,SSW,205,0.0,0.0,55,0.00,,OVC,0.03,WeatherDisplay:10.37,2013-04-20 16:23:00,
2013-04-20 12:28:00,87.6,69.4,29.99,SSW,202,0.0,0.0,55,0.00,,OVC,0.03,WeatherDisplay:10.37,2013-04-20 16:28:00,
2013-04-20 12:33:00,88.0,69.3,29.99,SSW,202,0.0,0.0,54,0.00,,OVC,0.03,WeatherDisplay:10.37,2013-04-20 16:33:00,
2013-04-20 12:38:00,88.6,68.7,29.99,SSW,199,0.0,0.0,52,0.00,,OVC,0.03,WeatherDisplay:10.37,2013-04-20 16:38:00,
2013-04-20 12:43:00,88.6,68.2,29.99,SW,223,0.0,0.0,51,0.00,,OVC,0.03,WeatherDisplay:10.37,2013-04-20 16:43:00,
2013-04-20 12:48:00,88.4,68.0,29.98,SE,139,0.0,0.0,51,0.00,,OVC,0.03,WeatherDisplay:10.37,2013-04-20 16:48:00,
2013-04-20 12:53:00,88.4,68.5,29.98,SE,139,0.0,0.0,52,0.00,,OVC,0.03,WeatherDisplay:10.37,2013-04-20 16:53:00,
2013-04-20 12:58:00,88.8,68.3,29.98,SW,217,0.0,0.0,51,0.00,,OVC,0.03,WeatherDisplay:10.37,2013-04-20 16:58:00,
2013-04-20 13:03:00,88.8,68.9,29.98,SW,220,0.0,0.0,52,0.00,,OVC,0.03,WeatherDisplay:10.37,2013-04-20 17:03:00,
2013-04-20 13:08:00,88.4,68.5,29.98,West,273,0.0,0.0,52,0.00,,OVC,0.03,WeatherDisplay:10.37,2013-04-20 17:08:00,
2013-04-20 13:13:00,88.0,69.8,29.98,NNW,328,0.0,0.0,55,0.00,,OVC,0.03,WeatherDisplay:10.37,2013-04-20 17:13:00,
2013-04-20 13:18:00,88.0,69.8,29.97,NNW,327,0.0,0.0,55,0.00,,OVC,0.03,WeatherDisplay:10.37,2013-04-20 17:18:00,
2013-04-20 13:23:00,88.2,67.8,29.97,NNW,329,0.0,0.0,51,0.00,,OVC,0.03,WeatherDisplay:10.37,2013-04-20 17:23:00,
2013-04-20 13:28:00,88.4,67.4,29.97,NW,318,0.0,0.0,50,0.00,,OVC,0.03,WeatherDisplay:10.37,2013-04-20 17:28:00,
2013-04-20 13:33:00,88.6,68.2,29.96,NW,318,0.0,0.0,51,0.00,,OVC,0.03,WeatherDisplay:10.37,2013-04-20 17:33:00,
2013-04-20 13:38:00,88.6,69.3,29.96,NNW,331,0.0,0.0,53,0.00,,OVC,0.03,WeatherDisplay:10.37,2013-04-20 17:38:00,
2013-04-20 13:43:00,88.0,69.3,29.96,WNW,297,0.0,0.0,54,0.00,,OVC,0.03,WeatherDisplay:10.37,2013-04-20 17:43:00,
2013-04-20 13:48:00,87.8,68.5,29.97,WNW,298,0.0,0.0,53,0.00,,OVC,0.03,WeatherDisplay:10.37,2013-04-20 17:48:00,
2013-04-20 13:53:00,87.8,68.0,29.97,WNW,297,0.0,0.0,52,0.00,,OVC,0.03,WeatherDisplay:10.37,2013-04-20 17:53:00,
2013-04-20 13:58:00,88.6,68.2,29.97,WNW,298,0.0,0.0,51,0.00,,OVC,0.03,WeatherDisplay:10.37,2013-04-20 17:58:00,
2013-04-20 14:03:00,89.3,68.2,29.96,North,355,0.0,0.0,50,0.00,,OVC,0.03,WeatherDisplay:10.37,2013-04-20 18:03:00,
2013-04-20 14:08:00,89.5,69.0,29.96,WNW,298,0.0,0.0,51,0.00,,OVC,0.03,WeatherDisplay:10.37,2013-04-20 18:08:00,
2013-04-20 14:13:00,89.3,69.4,29.96,North,355,0.0,0.0,52,0.00,,OVC,0.03,WeatherDisplay:10.37,2013-04-20 18:13:00,
2013-04-20 14:18:00,88.6,71.9,29.96,North,351,0.0,0.0,58,0.00,,OVC,0.03,WeatherDisplay:10.37,2013-04-20 18:18:00,
2013-04-20 14:23:00,88.0,72.9,29.96,North,355,0.0,0.0,61,0.00,,OVC,0.03,WeatherDisplay:10.37,2013-04-20 18:23:00,
2013-04-20 14:28:00,88.2,73.5,29.96,SE,132,0.0,0.0,62,0.00,,OVC,0.03,WeatherDisplay:10.37,2013-04-20 18:28:00,
2013-04-20 14:33:00,88.0,72.9,29.95,ESE,105,0.0,0.0,61,0.00,,OVC,0.03,WeatherDisplay:10.37,2013-04-20 18:33:00,
2013-04-20 14:39:00,87.6,73.0,29.95,NE,43,0.0,0.0,62,0.00,,OVC,0.03,WeatherDisplay:10.37,2013-04-20 18:39:00,
2013-04-20 14:44:00,87.4,73.7,29.95,ESE,107,3.5,3.5,64,0.00,,OVC,0.03,WeatherDisplay:10.37,2013-04-20 18:44:00,
2013-04-20 14:49:00,87.6,73.9,29.94,SSW,200,1.2,1.2,64,0.00,,OVC,0.03,WeatherDisplay:10.37,2013-04-20 18:49:00,
2013-04-20 14:54:00,87.4,73.3,29.94,ENE,76,0.0,0.0,63,0.00,,OVC,0.03,WeatherDisplay:10.37,2013-04-20 18:54:00,
2013-04-20 14:59:00,87.0,73.3,29.94,East,84,0.0,0.0,64,0.00,,OVC,0.03,WeatherDisplay:10.37,2013-04-20 18:59:00,
2013-04-20 15:04:00,87.4,73.3,29.94,ENE,63,0.0,0.0,63,0.00,,OVC,0.03,WeatherDisplay:10.37,2013-04-20 19:04:00,
2013-04-20 15:09:00,87.4,72.8,29.94,SE,146,0.0,0.0,62,0.00,,OVC,0.03,WeatherDisplay:10.37,2013-04-20 19:09:00,
2013-04-20 15:14:00,87.8,73.2,29.94,NE,54,4.6,4.6,62,0.00,,OVC,0.03,WeatherDisplay:10.37,2013-04-20 19:14:00,
2013-04-20 15:19:00,87.6,73.0,29.93,NE,48,0.0,0.0,62,0.00,,OVC,0.03,WeatherDisplay:10.37,2013-04-20 19:19:00,
2013-04-20 15:24:00,87.6,72.0,29.93,ENE,63,2.3,2.3,60,0.00,,OVC,0.03,WeatherDisplay:10.37,2013-04-20 19:24:00,
2013-04-20 15:29:00,87.4,72.3,29.93,ENE,59,0.0,0.0,61,0.00,,OVC,0.03,WeatherDisplay:10.37,2013-04-20 19:29:00,
2013-04-20 15:34:00,87.0,72.4,29.93,NE,44,8.1,8.1,62,0.00,,OVC,0.03,WeatherDisplay:10.37,2013-04-20 19:34:00,
2013-04-20 15:39:00,86.3,72.7,29.93,SE,142,0.0,0.0,64,0.00,,OVC,0.03,WeatherDisplay:10.37,2013-04-20 19:39:00,
2013-04-20 15:44:00,85.5,72.4,29.93,NE,50,9.2,9.2,65,0.00,,OVC,0.03,WeatherDisplay:10.37,2013-04-20 19:44:00,
2013-04-20 15:49:00,85.1,72.5,29.93,SSE,148,3.5,3.5,66,0.00,,OVC,0.03,WeatherDisplay:10.37,2013-04-20 19:49:00,
2013-04-20 15:54:00,84.7,72.5,29.93,SE,138,0.0,0.0,67,0.00,,OVC,0.03,WeatherDisplay:10.37,2013-04-20 19:54:00,
2013-04-20 15:59:00,84.9,72.3,29.93,ESE,118,0.0,0.0,66,0.00,,OVC,0.03,WeatherDisplay:10.37,2013-04-20 19:59:00,
2013-04-20 16:04:00,84.5,72.3,29.93,SE,135,2.3,2.3,67,0.00,,OVC,0.03,WeatherDisplay:10.37,2013-04-20 20:04:00,
2013-04-20 16:09:00,84.1,72.8,29.93,SE,137,0.0,0.5,69,0.00,,OVC,0.03,WeatherDisplay:10.37,2013-04-20 20:09:00,
2013-04-20 16:14:00,83.4,72.2,29.92,SE,142,10.4,10.4,69,0.00,,OVC,0.03,WeatherDisplay:10.37,2013-04-20 20:14:00,
2013-04-20 16:19:00,82.6,71.0,29.92,SSE,150,13.8,13.8,68,0.00,,OVC,0.03,WeatherDisplay:10.37,2013-04-20 20:19:00,
2013-04-20 16:24:00,82.2,70.6,29.92,SSE,147,0.0,0.0,68,0.00,,OVC,0.03,WeatherDisplay:10.37,2013-04-20 20:24:00,
2013-04-20 16:29:00,82.2,71.0,29.90,SE,143,0.0,0.0,69,0.00,,OVC,0.03,WeatherDisplay:10.37,2013-04-20 20:29:00,
2013-04-20 16:34:00,82.2,69.7,29.90,SE,139,0.0,0.0,66,0.00,,OVC,0.03,WeatherDisplay:10.37,2013-04-20 20:34:00,
2013-04-20 16:39:00,82.0,69.1,29.90,NE,49,0.0,0.0,65,0.00,,OVC,0.03,WeatherDisplay:10.37,2013-04-20 20:39:00,
2013-04-20 16:44:00,81.8,69.8,29.93,North,11,0.0,0.0,67,0.00,,OVC,0.03,WeatherDisplay:10.37,2013-04-20 20:44:00,
2013-04-20 16:49:00,79.8,70.4,29.93,NW,326,36.0,36.0,73,0.04,RA,OVC,0.09,WeatherDisplay:10.37,2013-04-20 20:49:00,
2013-04-20 16:54:00,76.5,70.2,29.93,North,355,26.5,26.5,81,0.12,RA,OVC,0.15,WeatherDisplay:10.37,2013-04-20 20:54:00,
2013-04-20 16:59:00,74.9,70.4,29.95,WNW,286,29.9,29.9,86,0.17,RA,OVC,0.20,WeatherDisplay:10.37,2013-04-20 20:59:00,
2013-04-20 17:04:00,74.4,70.6,29.95,WNW,299,21.9,21.9,88,0.17,RA,OVC,0.20,WeatherDisplay:10.37,2013-04-20 21:04:00,
2013-04-20 17:09:00,73.9,70.5,29.95,North,351,24.2,24.2,89,0.17,,OVC,0.20,WeatherDisplay:10.37,2013-04-20 21:09:00,
2013-04-20 17:14:00,73.7,70.3,29.96,NNE,15,27.6,27.6,89,0.17,,OVC,0.20,WeatherDisplay:10.37,2013-04-20 21:14:00,
2013-04-20 17:19:00,73.3,70.2,29.96,NNW,346,18.4,18.4,90,0.17,,OVC,0.20,WeatherDisplay:10.37,2013-04-20 21:19:00,
2013-04-20 17:24:00,73.2,70.4,29.96,NE,42,18.4,18.4,91,0.17,,OVC,0.20,WeatherDisplay:10.37,2013-04-20 21:24:00,
2013-04-20 17:29:00,73.0,70.2,29.96,NNE,15,13.8,13.8,91,0.17,,OVC,0.20,WeatherDisplay:10.37,2013-04-20 21:29:00,
2013-04-20 17:34:00,73.0,70.5,29.96,NNW,340,13.8,13.8,92,0.17,,OVC,0.20,WeatherDisplay:10.37,2013-04-20 21:34:00,
2013-04-20 17:39:00,73.0,70.5,29.96,NNW,330,11.5,11.5,92,0.17,,OVC,0.20,WeatherDisplay:10.37,2013-04-20 21:39:00,
2013-04-20 17:44:00,72.8,70.3,29.96,North,355,11.5,11.5,92,0.17,,OVC,0.20,WeatherDisplay:10.37,2013-04-20 21:44:00,
2013-04-20 17:49:00,72.7,70.2,29.96,NW,315,6.9,6.9,92,0.13,,OVC,0.20,WeatherDisplay:10.37,2013-04-20 21:49:00,
2013-04-20 17:54:00,72.5,70.0,29.96,North,355,0.0,0.0,92,0.05,,OVC,0.20,WeatherDisplay:10.37,2013-04-20 21:54:00,
2013-04-20 17:59:00,72.5,70.0,29.98,ENE,61,1.2,2.9,92,0.00,,OVC,0.20,WeatherDisplay:10.37,2013-04-20 21:59:00,
2013-04-20 18:04:00,72.5,69.7,29.98,NE,35,0.0,0.0,91,0.00,,OVC,0.20,WeatherDisplay:10.37,2013-04-20 22:04:00,
2013-04-20 18:09:00,72.7,70.2,29.98,North,355,6.0,6.0,92,0.00,,OVC,0.20,WeatherDisplay:10.37,2013-04-20 22:09:00,
2013-04-20 18:14:00,73.0,70.5,29.97,NW,319,2.0,2.0,92,0.00,,OVC,0.20,WeatherDisplay:10.37,2013-04-20 22:14:00,
2013-04-20 18:19:00,73.3,70.8,29.97,NNE,28,2.0,0.0,92,0.00,,OVC,0.20,WeatherDisplay:10.37,2013-04-20 22:19:00,
2013-04-20 18:24:00,73.5,71.0,29.97,ENE,73,13.0,13.0,92,0.00,,OVC,0.20,WeatherDisplay:10.37,2013-04-20 22:24:00,
2013-04-20 18:29:00,73.3,70.5,29.98,NNE,18,12.7,12.7,91,0.00,,OVC,0.20,WeatherDisplay:10.37,2013-04-20 22:29:00,
2013-04-20 18:34:00,73.7,71.2,29.98,NNE,25,0.0,0.0,92,0.00,,OVC,0.20,WeatherDisplay:10.37,2013-04-20 22:34:00,
2013-04-20 18:39:00,74.0,71.5,29.98,NNE,13,0.0,0.0,92,0.00,,OVC,0.20,WeatherDisplay:10.37,2013-04-20 22:39:00,
2013-04-20 18:44:00,74.2,71.7,29.98,NE,36,0.0,0.0,92,0.00,,OVC,0.20,WeatherDisplay:10.37,2013-04-20 22:44:00,
2013-04-20 18:49:00,74.6,72.1,29.98,ENE,65,0.0,0.0,92,0.00,,OVC,0.20,WeatherDisplay:10.37,2013-04-20 22:49:00,
2013-04-20 18:54:00,74.7,72.2,29.98,ENE,57,0.0,0.0,92,0.00,,OVC,0.20,WeatherDisplay:10.37,2013-04-20 22:54:00,
2013-04-20 18:59:00,74.9,72.4,29.97,NE,56,0.0,0.0,92,0.00,,OVC,0.20,WeatherDisplay:10.37,2013-04-20 22:59:00,
2013-04-20 19:04:00,75.1,72.6,29.97,NE,49,0.0,0.0,92,0.00,,OVC,0.20,WeatherDisplay:10.37,2013-04-20 23:04:00,
2013-04-20 19:09:00,75.3,72.8,29.97,ENE,69,0.0,1.8,92,0.00,,OVC,0.20,WeatherDisplay:10.37,2013-04-20 23:09:00,
2013-04-20 19:14:00,75.3,72.8,29.97,ESE,114,0.0,2.7,92,0.00,,OVC,0.20,WeatherDisplay:10.37,2013-04-20 23:14:00,
2013-04-20 19:19:00,75.4,72.9,29.97,NE,46,10.4,10.4,92,0.00,,OVC,0.20,WeatherDisplay:10.37,2013-04-20 23:19:00,
2013-04-20 19:24:00,75.3,72.8,29.97,NE,56,6.9,6.9,92,0.00,,OVC,0.20,WeatherDisplay:10.37,2013-04-20 23:24:00,
2013-04-20 19:29:00,75.4,72.9,29.97,ENE,67,6.9,6.9,92,0.00,,OVC,0.20,WeatherDisplay:10.37,2013-04-20 23:29:00,
2013-04-20 19:34:00,75.4,72.6,29.97,ENE,62,0.0,0.0,91,0.00,,OVC,0.20,WeatherDisplay:10.37,2013-04-20 23:34:00,
2013-04-20 19:40:00,75.6,72.8,29.97,NE,52,0.0,0.0,91,0.00,,OVC,0.20,WeatherDisplay:10.37,2013-04-20 23:40:00,
2013-04-20 19:45:00,75.8,73.0,29.98,NE,47,0.0,0.0,91,0.00,,OVC,0.20,WeatherDisplay:10.37,2013-04-20 23:45:00,
2013-04-20 19:50:00,75.8,73.0,29.98,NE,52,0.0,0.0,91,0.00,,OVC,0.20,WeatherDisplay:10.37,2013-04-20 23:50:00,
2013-04-20 19:55:00,75.8,73.0,29.98,NE,42,0.0,0.0,91,0.00,,OVC,0.20,WeatherDisplay:10.37,2013-04-20 23:55:00,
2013-04-20 20:00:00,75.8,73.0,29.99,NE,49,0.0,0.0,91,0.00,,OVC,0.20,WeatherDisplay:10.37,2013-04-21 00:00:00,
2013-04-20 20:05:00,75.6,72.5,29.99,ENE,65,11.5,11.5,90,0.00,,OVC,0.20,WeatherDisplay:10.37,2013-04-21 00:05:00,
2013-04-20 20:10:00,75.6,72.5,29.99,NE,52,4.6,4.6,90,0.00,,OVC,0.20,WeatherDisplay:10.37,2013-04-21 00:10:00,
2013-04-20 20:15:00,75.6,72.1,29.99,NE,54,0.0,0.0,89,0.00,,OVC,0.20,WeatherDisplay:10.37,2013-04-21 00:15:00,
2013-04-20 20:20:00,75.6,72.1,29.99,NE,43,0.0,0.0,89,0.00,,OVC,0.20,WeatherDisplay:10.37,2013-04-21 00:20:00,
2013-04-20 20:25:00,75.6,72.1,29.99,NE,37,0.0,0.0,89,0.00,,OVC,0.20,WeatherDisplay:10.37,2013-04-21 00:25:00,
2013-04-20 20:30:00,75.6,72.1,29.99,NE,37,0.0,0.0,89,0.00,,OVC,0.20,WeatherDisplay:10.37,2013-04-21 00:30:00,
2013-04-20 20:35:00,75.6,72.1,29.99,NE,38,0.0,0.0,89,0.00,,OVC,0.20,WeatherDisplay:10.37,2013-04-21 00:35:00,
2013-04-20 20:40:00,75.6,72.1,29.99,NE,56,0.0,0.0,89,0.00,,OVC,0.20,WeatherDisplay:10.37,2013-04-21 00:40:00,
2013-04-20 20:45:00,75.4,71.9,30.00,ENE,57,0.0,0.0,89,0.00,,OVC,0.20,WeatherDisplay:10.37,2013-04-21 00:45:00,
2013-04-20 20:50:00,75.6,72.5,30.00,ENE,57,0.0,0.0,90,0.00,,OVC,0.20,WeatherDisplay:10.37,2013-04-21 00:50:00,
2013-04-20 20:55:00,75.4,72.3,30.00,NE,43,0.0,0.0,90,0.00,,OVC,0.20,WeatherDisplay:10.37,2013-04-21 00:55:00,
2013-04-20 21:00:00,75.4,72.3,30.00,NE,44,0.0,0.0,90,0.00,,OVC,0.20,WeatherDisplay:10.37,2013-04-21 01:00:00,
2013-04-20 21:05:00,75.4,72.3,30.00,NE,44,0.0,0.0,90,0.00,,OVC,0.20,WeatherDisplay:10.37,2013-04-21 01:05:00,
2013-04-20 21:10:00,75.4,72.3,30.00,NE,44,0.0,0.0,90,0.00,,OVC,0.20,WeatherDisplay:10.37,2013-04-21 01:10:00,
2013-04-20 21:15:00,75.6,72.5,30.01,NE,44,0.0,0.0,90,0.00,,OVC,0.20,WeatherDisplay:10.37,2013-04-21 01:15:00,
2013-04-20 21:20:00,75.4,72.3,30.01,NE,44,0.0,0.0,90,0.00,,OVC,0.20,WeatherDisplay:10.37,2013-04-21 01:20:00,
2013-04-20 21:25:00,75.4,72.3,30.01,NE,44,0.0,0.0,90,0.00,,OVC,0.20,WeatherDisplay:10.37,2013-04-21 01:25:00,
2013-04-20 21:30:00,75.6,72.5,30.02,NE,44,0.0,0.0,90,0.00,,OVC,0.20,WeatherDisplay:10.37,2013-04-21 01:30:00,
2013-04-20 21:35:00,75.6,72.5,30.02,NE,44,0.0,0.0,90,0.00,,OVC,0.20,WeatherDisplay:10.37,2013-04-21 01:35:00,
2013-04-20 21:40:00,75.6,72.5,30.02,NE,44,0.0,0.0,90,0.00,,OVC,0.20,WeatherDisplay:10.37,2013-04-21 01:40:00,
2013-04-20 21:45:00,75.6,72.5,30.03,NE,44,0.0,0.0,90,0.00,,OVC,0.20,WeatherDisplay:10.37,2013-04-21 01:45:00,
2013-04-20 21:50:00,75.6,72.8,30.03,NE,44,0.0,0.0,91,0.00,,OVC,0.20,WeatherDisplay:10.37,2013-04-21 01:50:00,
2013-04-20 21:55:00,75.8,73.0,30.03,NE,44,0.0,0.0,91,0.00,,OVC,0.20,WeatherDisplay:10.37,2013-04-21 01:55:00,
2013-04-20 22:00:00,76.0,73.2,30.04,NNE,32,0.0,0.0,91,0.00,,OVC,0.20,WeatherDisplay:10.37,2013-04-21 02:00:00,
2013-04-20 22:05:00,76.0,73.2,30.04,NNE,32,0.0,0.0,91,0.00,CLR,OVC,0.20,WeatherDisplay:10.37,2013-04-21 02:05:00,
2013-04-20 22:10:00,75.8,72.7,30.04,NNE,32,0.0,0.0,90,0.00,CLR,OVC,0.20,WeatherDisplay:10.37,2013-04-21 02:10:00,
2013-04-20 22:15:00,75.8,73.0,30.04,WNW,293,0.0,0.0,91,0.00,CLR,OVC,0.20,WeatherDisplay:10.37,2013-04-21 02:15:00,
2013-04-20 22:20:00,75.6,72.5,30.04,NW,321,0.0,0.0,90,0.00,CLR,OVC,0.20,WeatherDisplay:10.37,2013-04-21 02:20:00,
2013-04-20 22:25:00,75.4,72.3,30.04,NNW,330,4.0,4.0,90,0.00,CLR,OVC,0.20,WeatherDisplay:10.37,2013-04-21 02:25:00,
2013-04-20 22:30:00,75.4,72.3,30.04,NW,325,0.0,0.0,90,0.00,CLR,OVC,0.20,WeatherDisplay:10.37,2013-04-21 02:30:00,
2013-04-20 22:35:00,75.3,72.2,30.04,NW,322,0.0,0.0,90,0.00,CLR,OVC,0.20,WeatherDisplay:10.37,2013-04-21 02:35:00,
2013-04-20 22:40:00,75.3,72.2,30.04,NW,319,0.0,0.0,90,0.00,CLR,OVC,0.20,WeatherDisplay:10.37,2013-04-21 02:40:00,
2013-04-20 22:45:00,75.1,72.0,30.04,NNW,336,0.0,0.0,90,0.00,CLR,OVC,0.20,WeatherDisplay:10.37,2013-04-21 02:45:00,
2013-04-20 22:50:00,75.1,72.0,30.04,NNW,338,0.0,0.0,90,0.00,CLR,OVC,0.20,WeatherDisplay:10.37,2013-04-21 02:50:00,
2013-04-20 22:55:00,74.9,71.8,30.04,NNW,336,0.0,0.0,90,0.00,CLR,OVC,0.20,WeatherDisplay:10.37,2013-04-21 02:55:00,
2013-04-20 23:00:00,74.7,71.6,30.04,NNW,333,0.0,0.0,90,0.00,CLR,OVC,0.20,WeatherDisplay:10.37,2013-04-21 03:00:00,
2013-04-20 23:05:00,74.7,71.6,30.04,NNW,337,0.0,0.0,90,0.00,CLR,OVC,0.20,WeatherDisplay:10.37,2013-04-21 03:05:00,
2013-04-20 23:10:00,74.6,71.5,30.04,NW,316,8.1,8.1,90,0.00,CLR,OVC,0.20,WeatherDisplay:10.37,2013-04-21 03:10:00,
2013-04-20 23:15:00,74.4,71.3,30.04,NNW,334,0.0,0.0,90,0.00,CLR,OVC,0.20,WeatherDisplay:10.37,2013-04-21 03:15:00,
2013-04-20 23:20:00,74.4,71.3,30.04,NNW,336,11.5,11.5,90,0.00,CLR,OVC,0.20,WeatherDisplay:10.37,2013-04-21 03:20:00,
2013-04-20 23:25:00,74.2,71.1,30.04,NNW,327,0.0,0.0,90,0.00,CLR,OVC,0.20,WeatherDisplay:10.37,2013-04-21 03:25:00,
2013-04-20 23:30:00,74.0,71.2,30.04,NW,323,3.5,0.0,91,0.00,CLR,OVC,0.20,WeatherDisplay:10.37,2013-04-21 03:30:00,
2013-04-20 23:35:00,74.0,71.2,30.04,NW,317,0.0,0.0,91,0.00,CLR,OVC,0.20,WeatherDisplay:10.37,2013-04-21 03:35:00,
2013-04-20 23:40:00,73.9,71.1,30.04,NW,314,0.0,0.0,91,0.00,CLR,OVC,0.20,WeatherDisplay:10.37,2013-04-21 03:40:00,
2013-04-20 23:45:00,73.9,71.1,30.04,NW,323,5.8,0.0,91,0.00,CLR,OVC,0.20,WeatherDisplay:10.37,2013-04-21 03:45:00,
2013-04-20 23:50:00,73.7,70.9,30.04,NNW,335,0.0,0.0,91,0.00,CLR,OVC,0.20,WeatherDisplay:10.37,2013-04-21 03:50:00,
2013-04-20 23:55:00,73.5,70.7,30.04,NNW,338,10.4,10.4,91,0.00,CLR,OVC,0.20,WeatherDisplay:10.37,2013-04-21 03:55:00,